EW4536 Weather Reports


Display with metric or nautical units.
time (UTC)temp
F
wind
direction
speed
MPH
gust
MPH
rain 1hr
in
rain 24hr
in
rain mn
in
humidity
%
barometer
mb
20260505163027 82 123 4.0 10.0 0.00 0.00 0.00 43 1016.4
20260505161605 81 114 2.0 7.0 0.00 0.00 0.00 46 1016.6
20260505153048 78 296 0.0 7.0 0.00 0.00 0.00 52 1016.8
20260505151611 79 146 2.0 9.0 0.00 0.00 0.00 53 1016.9
20260505124601 65 134 0.0 5.0 0.00 0.00 0.00 80 1016.4
20260505123026 63 154 1.0 4.0 0.00 0.00 0.00 85 1016.3
20260505121602 59 151 0.0 0.0 0.00 0.00 0.00 92 1016.3
20260505120028 56 151 0.0 0.0 0.00 0.00 0.00 94 1016.5
20260505114558 54 151 0.0 0.0 0.00 0.00 0.00 94 1016.1
20260505113036 52 151 0.0 0.0 0.00 0.00 0.00 94 1015.9
20260505111608 51 151 0.0 0.0 0.00 0.00 0.00 94 1016.1
20260505101605 51 151 0.0 0.0 0.00 0.00 0.00 93 1015.6
20260505100020 51 151 0.0 0.0 0.00 0.00 0.00 93 1015.6
20260505094601 50 151 0.0 2.0 0.00 0.00 0.00 92 1015.4
20260505093008 51 151 0.0 0.0 0.00 0.00 0.00 93 1015.3
20260505091549 51 151 0.0 1.0 0.00 0.00 0.00 92 1015.2
20260505090021 52 151 0.0 2.0 0.00 0.00 0.00 92 1015.0
20260505084548 52 151 0.0 0.0 0.00 0.00 0.00 92 1014.8
20260505083012 52 151 0.0 0.0 0.00 0.00 0.00 92 1014.8
20260505081549 52 151 0.0 0.0 0.00 0.00 0.00 92 1014.8
20260505080024 53 151 0.0 0.0 0.00 0.00 0.00 92 1014.8
20260505074546 53 151 0.0 2.0 0.00 0.00 0.00 92 1014.8
20260505073015 53 151 0.0 0.0 0.00 0.00 0.00 92 1014.9
20260505071548 54 151 0.0 2.0 0.00 0.00 0.00 91 1015.0
20260505070025 55 151 0.0 0.0 0.00 0.00 0.00 91 1015.1
20260505064558 55 151 0.0 0.0 0.00 0.00 0.00 91 1015.4
20260505063026 55 151 0.0 0.0 0.00 0.00 0.00 91 1015.5
20260505061630 55 151 0.0 0.0 0.00 0.00 0.00 91 1015.6
20260505060031 55 151 0.0 1.0 0.00 0.00 0.00 90 1015.9
20260505054606 57 151 0.0 0.0 0.00 0.00 0.00 90 1016.0
20260505053026 57 151 0.0 0.0 0.00 0.00 0.00 90 1016.0
20260505051600 57 151 0.0 0.0 0.00 0.00 0.00 89 1016.3
20260505041601 60 151 0.0 0.0 0.00 0.00 0.00 84 1016.6
20260505040030 60 151 0.0 0.0 0.00 0.00 0.00 82 1016.7
20260505034546 61 151 0.0 0.0 0.00 0.00 0.00 81 1016.7
20260505033017 62 151 0.0 2.0 0.00 0.00 0.00 78 1016.8
20260505031558 64 151 0.0 2.0 0.00 0.00 0.00 75 1016.7
20260505030025 65 153 0.0 2.0 0.00 0.00 0.00 73 1016.6
20260505024601 66 152 0.0 2.0 0.00 0.00 0.00 72 1016.5
20260505023018 67 142 1.0 7.0 0.00 0.00 0.00 70 1016.4
20260505021553 67 128 3.0 9.0 0.00 0.00 0.00 69 1016.1
20260505020025 68 134 3.0 7.0 0.00 0.00 0.00 69 1015.9
20260505014555 68 137 3.0 7.0 0.00 0.00 0.00 68 1015.8
20260505013017 69 136 3.0 6.0 0.00 0.00 0.00 66 1015.8
20260505011619 69 137 3.0 8.0 0.00 0.00 0.00 65 1015.6
20260505010033 70 127 2.0 6.0 0.00 0.00 0.00 64 1015.6
20260505004507 71 113 1.0 4.0 0.00 0.00 0.00 61 1015.3
20260505003043 71 123 3.0 8.0 0.00 0.00 0.00 59 1015.2
20260505001522 72 135 3.0 9.0 0.00 0.00 0.00 57 1015.1
20260504234527 74 128 1.0 7.0 0.00 0.00 0.00 54 1014.8
20260504233058 75 124 6.0 11.0 0.00 0.00 0.00 51 1014.6
20260504231521 76 59 3.0 11.0 0.00 0.00 0.00 49 1014.5
20260504230104 77 134 6.0 14.0 0.00 0.00 0.00 47 1014.3
20260504224525 77 90 6.0 16.0 0.00 0.00 0.00 46 1014.4
20260504223103 78 82 4.0 9.0 0.00 0.00 0.00 44 1014.3
20260504221525 79 97 5.0 12.0 0.00 0.00 0.00 41 1014.3
20260504220100 80 40 0.0 11.0 0.00 0.00 0.00 38 1014.3
20260504214521 80 161 3.0 14.0 0.00 0.00 0.00 37 1014.3
20260504213109 81 51 2.0 13.0 0.00 0.00 0.00 36 1014.2
20260504211519 80 140 4.0 12.0 0.00 0.00 0.00 35 1014.4
20260504210051 81 123 4.0 10.0 0.00 0.00 0.00 35 1014.4
20260504204523 81 78 3.0 9.0 0.00 0.00 0.00 33 1014.6
20260504203057 80 159 3.0 11.0 0.00 0.00 0.00 31 1014.7
20260504201517 81 132 3.0 11.0 0.00 0.00 0.00 33 1014.9
20260504200049 82 124 5.0 15.0 0.00 0.00 0.00 31 1015.1
20260504194520 81 153 5.0 11.0 0.00 0.00 0.00 33 1015.2
20260504193111 82 167 4.0 12.0 0.00 0.00 0.00 33 1015.4
20260504191516 81 150 5.0 11.0 0.00 0.00 0.00 32 1015.6
20260504190046 80 184 3.0 14.0 0.00 0.00 0.00 33 1015.9
20260504184506 80 69 1.0 10.0 0.00 0.00 0.00 33 1015.8
20260504183052 79 142 4.0 13.0 0.00 0.00 0.00 34 1016.3
20260504181503 81 153 4.0 13.0 0.00 0.00 0.00 34 1016.3
20260504180107 79 113 2.0 8.0 0.00 0.00 0.00 34 1016.5
20260504174519 80 81 2.0 6.0 0.00 0.00 0.00 36 1016.6
20260504173058 78 124 3.0 11.0 0.00 0.00 0.00 35 1016.8
20260504171517 78 42 2.0 11.0 0.00 0.00 0.00 37 1017.0